Location: ?
(35.4554°N, 139.3092°E)
Time: 21:56:17
(UTC+00:00)

IRS-1C - Pass Details

Date: 21 April 2021
Orbit: 816 x 817 km, 98.9° (Epoch: 10 May)

Event Time Altitude Azimuth Distance (km) Brightness Sun altitude
Rises 17:29:00 0° 14° (NNE) 3,348 8.1 -28.1°
Reaches altitude 10° 17:31:21 10° 16° (NNE) 2,412 7.3 -27.7°
Maximum altitude 17:36:42 78° 103° (ESE) 835 4.1 -26.9°
Enters shadow 17:37:10 72° 155° (SSE) 859 4.1 -26.9°
